JKK2LH GMMN-LEMD

Flight info

Callsign JKK2LH
Flight time N/A
Altitude 32000
Route TOLSI UG5 KORIS DCT SVL DCT HIJ DCT PARKA DCT SOTUK
Aircraft MD88/M-SDFGIRWY/C

Departure

Time 2026-04-28 09:42
Airport Mohammed V International Airport (GMMN)

Arrival

Time N/A
Airport Adolfo Suárez Madrid–Barajas Airport (LEMD)
Time Latitude Longitude Altitude Speed Heading
2026-04-28 08:48 33.37542 -7.58490 659 ft 0 kts 118°
2026-04-28 09:34 33.37539 -7.58482 659 ft 2 kts 117°
2026-04-28 09:34 33.37533 -7.58467 659 ft 1 kts 113°
2026-04-28 09:34 33.37527 -7.58443 659 ft 4 kts 87°
2026-04-28 09:34 33.37560 -7.58426 659 ft 7 kts 346°
2026-04-28 09:35 33.37629 -7.58440 659 ft 12 kts 356°
2026-04-28 09:35 33.37725 -7.58463 659 ft 15 kts 343°
2026-04-28 09:35 33.37826 -7.58528 659 ft 18 kts 312°
2026-04-28 09:35 33.37906 -7.58654 659 ft 18 kts 295°
2026-04-28 09:36 33.37895 -7.58789 659 ft 11 kts 267°
2026-04-28 09:36 33.37935 -7.58831 659 ft 8 kts 348°
2026-04-28 09:36 33.37985 -7.58841 659 ft 6 kts 338°
2026-04-28 09:36 33.38036 -7.58864 659 ft 9 kts 341°
2026-04-28 09:37 33.38108 -7.58891 659 ft 12 kts 343°
2026-04-28 09:37 33.38201 -7.58923 659 ft 15 kts 343°
2026-04-28 09:37 33.38308 -7.58960 659 ft 16 kts 343°
2026-04-28 09:37 33.38416 -7.58997 659 ft 13 kts 343°
2026-04-28 09:38 33.38460 -7.59051 659 ft 9 kts 269°
2026-04-28 09:38 33.38445 -7.59128 659 ft 9 kts 253°
2026-04-28 09:38 33.38426 -7.59203 659 ft 8 kts 253°
2026-04-28 09:38 33.38412 -7.59258 659 ft 5 kts 252°
2026-04-28 09:39 33.38401 -7.59298 659 ft 4 kts 252°
2026-04-28 09:39 33.38395 -7.59322 659 ft 2 kts 252°
2026-04-28 09:39 33.38392 -7.59329 659 ft 0 kts 234°
2026-04-28 09:39 33.38383 -7.59336 659 ft 2 kts 199°
2026-04-28 09:40 33.38366 -7.59335 659 ft 0 kts 164°
2026-04-28 09:40 33.38361 -7.59333 659 ft 4 kts 163°
2026-04-28 09:40 33.38214 -7.59284 659 ft 49 kts 165°
2026-04-28 09:41 33.38088 -7.59244 659 ft 68 kts 165°
2026-04-28 09:41 33.38021 -7.59224 659 ft 81 kts 165°
2026-04-28 09:41 33.37861 -7.59175 659 ft 105 kts 165°
2026-04-28 09:42 33.37730 -7.59135 659 ft 121 kts 163°
2026-04-28 09:42 33.36656 -7.58733 790 ft 191 kts 164°
2026-04-28 09:42 33.35329 -7.58237 1676 ft 211 kts 162°
2026-04-28 09:42 33.33910 -7.57658 2481 ft 219 kts 162°
2026-04-28 09:43 33.32503 -7.57003 3433 ft 212 kts 157°
2026-04-28 09:43 33.31271 -7.56097 4169 ft 219 kts 137°
2026-04-28 09:43 33.30423 -7.54466 4306 ft 256 kts 107°
2026-04-28 09:43 33.30238 -7.52269 4566 ft 278 kts 82°
2026-04-28 09:44 33.30889 -7.50057 5121 ft 286 kts 58°
2026-04-28 09:44 33.31959 -7.48041 5741 ft 291 kts 53°
2026-04-28 09:44 33.33302 -7.46258 6343 ft 296 kts 38°
2026-04-28 09:44 33.35032 -7.44950 6794 ft 284 kts 20°
2026-04-28 09:45 33.36923 -7.44393 7048 ft 290 kts
2026-04-28 09:45 33.38947 -7.44304 7880 ft 284 kts
2026-04-28 09:45 33.40888 -7.44167 8590 ft 284 kts
2026-04-28 09:45 33.42865 -7.43980 9212 ft 286 kts
2026-04-28 09:46 33.44860 -7.43744 9735 ft 292 kts
2026-04-28 09:46 33.46890 -7.43463 10166 ft 302 kts
2026-04-28 09:46 33.49163 -7.43113 9616 ft 343 kts
2026-04-28 09:46 33.51332 -7.42746 11316 ft 304 kts
2026-04-28 09:47 33.53452 -7.42371 11573 ft 319 kts
2026-04-28 09:47 33.55750 -7.41944 11552 ft 342 kts
2026-04-28 09:47 33.58108 -7.41504 12014 ft 347 kts
2026-04-28 09:47 33.60494 -7.41072 12613 ft 348 kts
2026-04-28 09:48 33.62916 -7.40632 13162 ft 351 kts
2026-04-28 09:48 33.65347 -7.40191 13738 ft 352 kts
2026-04-28 09:48 33.67780 -7.39747 14246 ft 355 kts
2026-04-28 09:48 33.70257 -7.39297 14728 ft 359 kts
2026-04-28 09:49 33.72726 -7.38845 15320 ft 358 kts
2026-04-28 09:49 33.75194 -7.38396 15733 ft 363 kts
2026-04-28 09:49 33.77696 -7.37939 16203 ft 365 kts
2026-04-28 09:49 33.80212 -7.37482 16687 ft 367 kts
2026-04-28 09:50 33.82754 -7.37016 17072 ft 372 kts
2026-04-28 09:50 33.85297 -7.36543 17572 ft 373 kts
2026-04-28 09:50 33.87861 -7.36049 17940 ft 377 kts
2026-04-28 09:50 33.90467 -7.35546 18432 ft 378 kts
2026-04-28 09:51 33.93086 -7.35042 18750 ft 383 kts
2026-04-28 09:51 33.95719 -7.34533 19219 ft 385 kts
2026-04-28 09:51 33.98381 -7.34021 19537 ft 390 kts
2026-04-28 09:51 34.01039 -7.33443 19945 ft 392 kts 13°
2026-04-28 09:52 34.03600 -7.32230 20249 ft 396 kts 30°
2026-04-28 09:52 34.06008 -7.30670 20631 ft 398 kts 28°
2026-04-28 09:52 34.08483 -7.29106 21008 ft 401 kts 27°
2026-04-28 09:52 34.10969 -7.27562 21305 ft 405 kts 27°
2026-04-28 09:53 34.13479 -7.26020 21707 ft 407 kts 27°
2026-04-28 09:53 34.16016 -7.24478 22016 ft 410 kts 27°
2026-04-28 09:53 34.18556 -7.22943 22339 ft 413 kts 27°
2026-04-28 09:53 34.21162 -7.21377 22727 ft 414 kts 26°
2026-04-28 09:54 34.23732 -7.19839 23011 ft 418 kts 26°
2026-04-28 09:54 34.26346 -7.18280 23354 ft 419 kts 26°
2026-04-28 09:54 34.28987 -7.16708 23649 ft 423 kts 26°
2026-04-28 09:54 34.31608 -7.15152 24005 ft 424 kts 26°
2026-04-28 09:55 34.34242 -7.13589 24333 ft 426 kts 26°
2026-04-28 09:55 34.36918 -7.12003 24656 ft 427 kts 26°
2026-04-28 09:55 34.39609 -7.10410 24969 ft 429 kts 26°
2026-04-28 09:55 34.42276 -7.08831 25270 ft 431 kts 26°
2026-04-28 09:56 34.44963 -7.07241 25609 ft 432 kts 26°
2026-04-28 09:56 34.47699 -7.05623 25879 ft 435 kts 26°
2026-04-28 09:56 34.50423 -7.04013 26169 ft 436 kts 26°
2026-04-28 09:56 34.53140 -7.02407 26477 ft 437 kts 26°
2026-04-28 09:57 34.55882 -7.00787 26726 ft 440 kts 26°
2026-04-28 09:57 34.58608 -6.99176 27028 ft 441 kts 26°
2026-04-28 09:57 34.61354 -6.97553 27450 ft 438 kts 26°
2026-04-28 09:57 34.64088 -6.95938 27794 ft 438 kts 26°
2026-04-28 09:58 34.66851 -6.94307 28210 ft 436 kts 26°
2026-04-28 09:58 34.69566 -6.92702 28625 ft 434 kts 26°
2026-04-28 09:58 34.72275 -6.91102 28917 ft 434 kts 26°
2026-04-28 09:58 34.74980 -6.89504 29278 ft 432 kts 26°
2026-04-28 09:59 34.77642 -6.87921 29659 ft 424 kts 27°
2026-04-28 09:59 34.80275 -6.86346 30160 ft 414 kts 27°
2026-04-28 09:59 34.82822 -6.84816 30666 ft 409 kts 27°
2026-04-28 09:59 34.85343 -6.83300 31120 ft 405 kts 27°
2026-04-28 10:00 34.87891 -6.81766 31356 ft 406 kts 27°
2026-04-28 10:00 34.90414 -6.80248 31624 ft 406 kts 27°
2026-04-28 10:00 34.92950 -6.78720 31860 ft 407 kts 27°
2026-04-28 10:00 34.95501 -6.77182 31865 ft 414 kts 27°
2026-04-28 10:01 35.00750 -6.74019 31872 ft 425 kts 27°
2026-04-28 10:01 35.06089 -6.70799 31869 ft 435 kts 27°
2026-04-28 10:02 35.11506 -6.67531 31864 ft 429 kts 27°
2026-04-28 10:02 35.16856 -6.64304 31866 ft 424 kts 27°
2026-04-28 10:03 35.22180 -6.61093 31867 ft 428 kts 26°
2026-04-28 10:03 35.27538 -6.57862 31866 ft 428 kts 26°
2026-04-28 10:04 35.32893 -6.54634 31871 ft 428 kts 26°